Regional Weather Roundup
Issued by NWS

Home | Current Version | Previous Version | Text Only | Print | Product List | Glossary Off
Versions: 1 2 3 4 5 6 7 8 9 10 11 12 13 14 15 16 17 18 19 20 21 22 23 24 25 26 27 28 29 30 31 32 33 34 35 36 37 38 39 40 41 42 43 44 45 46 47 48 49 50

000
ASUS43 KIND 011909
RWRIN

WEATHER ROUNDUP FOR INDIANA
NATIONAL WEATHER SERVICE INDIANAPOLIS IN
300 PM EDT TUE SEP 01 2015

NOTE: "FAIR" INDICATES FEW OR NO CLOUDS BELOW 12,000 FEET WITH NO
SIGNIFICANT WEATHER AND/OR OBSTRUCTIONS TO VISIBILITY.

* - STATION DOES NOT REPORT WEATHER SUCH AS PRECIPITATION OR FOG.

+ - STATION NOT QUALITY CONTROLLED BY THE NATIONAL WEATHER SERVICE.
    USE DATA WITH CAUTION...ESPECIALLY DEWPOINT AND RELATIVE
    HUMIDITY OBSERVATIONS.

INZ001>003-010>013-019-020-012000-
NORTHWEST INDIANA

CITY           SKY/WX    TMP DP  RH WIND       PRES   REMARKS
GARY /AIRPORT/ MOSUNNY   84  64  51 SW9G26    30.05F
KNOX *+        SUNNY     82  64  54 W14       30.06S
LA PORTE +     MOSUNNY   84  74  70 SW13      30.07F
MICHIGAN CITY+ MOSUNNY   82  68  61 SW9       30.05F
MONTICELLO +   SUNNY     83  69  62 SW9       30.07F
RENSSELAER +   MOSUNNY   82  72  69 S7        30.07F
VALPARAISO     SUNNY     82  71  69 SW9       30.07F

$$

LMZ046-743>745-012000-
SOUTHERN LAKE MICHIGAN

STATION/POSITION TIME  TEMP    WIND        PRES    WAVE
                       AIR SEA DIR/SP/G            HT
                 (UTC) (F)     (DEG/KT/KT) (MB)    (FT)
BURNS HARBOR     1800   79     200/ 12/ 17 1018.3F
MICHIGAN CITY    1800   79     190/ 14/ 17   N/A
5NW MICH CITY    1900   76 72  240/  8/  8   N/A     1

$$

INZ004-005-014>016-021>024-012000-
NORTH CENTRAL INDIANA

CITY           SKY/WX    TMP DP  RH WIND       PRES   REMARKS
ELKHART        CLOUDY    79  70  73 CALM      30.07F THUNDER
GOSHEN         MOSUNNY   87  71  58 SW12      30.07F
LOGANSPORT +   SUNNY     84  61  45 SW8       30.09S
PERU/GRISSOM   MOSUNNY   83  68  59 SW9       30.08S
ROCHESTER +    SUNNY     90  68  48 SW9       30.09R
SOUTH BEND     SUNNY     81  71  71 SW12      30.07R
WARSAW +       MOSUNNY   86  70  58 W9G16     30.08S

$$

INZ006>009-017-018-025>027-012000-
NORTHEAST INDIANA

CITY           SKY/WX    TMP DP  RH WIND       PRES   REMARKS
ANGOLA *+      MOSUNNY   88  72  58 W5        30.08F
AUBURN +       MOSUNNY   88  64  45 W3        30.08F
FORT WAYNE     MOSUNNY   82  70  66 SW21      30.09S
HUNTINGTON +   LGT RAIN  75  66  75 SW6       30.11R

$$

INZ028-029-035-036-043>045-051>053-012000-
WEST CENTRAL INDIANA

CITY           SKY/WX    TMP DP  RH WIND       PRES   REMARKS
CRAWFORDSVL +  PTSUNNY   77  65  65 S5        30.11F
GREENCASTLE +  CLOUDY    81  63  54 CALM      30.12F
LAFAYETTE      MOSUNNY   84  67  56 SW7       30.07F
TERRE HAUTE    CLOUDY    84  68  58 VRB6      30.10F

$$

INZ030>032-037>040-046>048-054>057-064-065-012000-
CENTRAL INDIANA

CITY           SKY/WX    TMP DP  RH WIND       PRES   REMARKS
ANDERSON       CLOUDY    72  59  64 N12G17    30.15
COLUMBUS       MOSUNNY   82  64  54 SW9       30.12F
FRANKFORT +    MOSUNNY   85  70  60 SW7       30.12S
GREENWOOD *+   PTSUNNY   84  66  54 SW6       30.13S
INDIANAPOLIS   CLOUDY    83  64  52 W7        30.12S
-EAGLE CREEK   PTSUNNY   82  68  62 W5        30.12R
KOKOMO *+      MOSUNNY   86  70  58 S13       30.10S
MARION +       PTSUNNY   68  62  80 S7        30.12F
MT COMFORT *+  CLOUDY    77  70  78 NE8       30.14R
SHELBYVILLE    PTSUNNY   87  68  52 SW9       30.11S
ZIONSVILLE +   PTSUNNY   85  68  57 SW7       30.12S

$$

INZ033-034-041-042-049-050-058-059-012000-
EAST CENTRAL INDIANA

CITY           SKY/WX    TMP DP  RH WIND       PRES   REMARKS
MUNCIE         CLOUDY    71  62  73 W13G22    30.13R THUNDER

$$

INZ060-061-067>069-081>083-085>088-012000-
SOUTHWEST INDIANA

CITY           SKY/WX    TMP DP  RH WIND       PRES   REMARKS
EVANSVILLE     PTSUNNY   87  67  51 VRB5      30.10F
HUNTINGBURG *+ MOSUNNY   88  66  48 SW3       30.10F
WASHINGTON +   MOSUNNY   85  62  44 SW7       30.10F

$$

INZ062-063-066-070>080-084-089>092-012000-
SOUTH CENTRAL AND SOUTHEAST INDIANA

CITY           SKY/WX    TMP DP  RH WIND       PRES   REMARKS
BLOOMINGTON    MOSUNNY   84  68  58 VRB6      30.12F
MADISON *+     MOSUNNY   88  63  42 CALM      30.14F
NORTH VERNON + MOSUNNY   86  64  48 SW8       30.13F
SEYMOUR +      MOSUNNY   90  66  45 SW5       30.10F

$$




USA.gov is the U.S. government's official web portal to all federal, state and local government web resources and services.